Flag for Australia Weather past 2 weeks in Mount Isa, Queensland, Australia

Now
99 °F

Scattered clouds.


Feels Like: 94 °F
Forecast: 78 / 99 °F
Wind: 15 mph from Southwest

Location: Mount Isa Amo

Current Time: Jan 26, 2015 at 5:01:12 PM

Latest Report: Jan 26, 2015 at 4:00 PM


Visibility: N/A

Pressure: 29.71 "Hg

Humidity: 13%

Dew point: 39 °F

Location of Mount IsaLocation

Historic Weather in Mount Isa — Graph

°F

Mount Isa temperature yesterday

Maximum temperature yesterday: 102 °F (at 2:30 PM)
Minimum temperature yesterday: 79 °F (at 5:00 AM)
Average temperature yesterday: 88 °F

Past Weeks' High & Low Weather Summary

 TemperatureHumidityPressure
High102 °F (Jan 25, 2:30 PM)100% (Jan 14, 4:00 AM)29.95 "Hg (Jan 14, 4:00 AM)
Low70 °F (Jan 20, 5:00 AM)12% (Jan 26, 3:30 PM)29.53 "Hg (Jan 22, 4:00 PM)
Average85 °F60%29.74 "Hg
* Reported Jan 11 4:00 PM — Jan 26 4:00 PM, Mount Isa, Weather by CustomWeather, © 2014

Note: Actual official high and low records may vary slightly from our data, if they occured in-between our weather recording intervals... More about our weather records

Advertising

Mount Isa weather history for previous 24 hours

 ConditionsComfort  
Time TempWeatherWind HumidityBarometerVisibility
4:00 PM
Jan 26
99 °FScattered clouds.15 mph13%29.71 "HgN/A
3:30 PM99 °FSunny.12 mph12%29.71 "HgN/A
3:00 PM99 °FSunny.13 mph14%29.71 "Hg10 mi
2:30 PM100 °FSunny.10 mph13%29.71 "HgN/A
2:00 PM99 °FSunny.8 mph13%29.74 "Hg10 mi
1:00 PM99 °FSunny.10 mph14%29.77 "Hg10 mi
12:30 PM97 °FSunny.9 mph16%29.77 "HgN/A
12:00 PM95 °FSunny.10 mph15%29.80 "Hg10 mi
11:30 AM95 °FSunny.10 mph14%29.80 "HgN/A
11:00 AM93 °FSunny.12 mph17%29.80 "Hg10 mi
10:30 AM91 °FSunny.14 mph18%29.83 "HgN/A
10:00 AM93 °FSunny.13 mph19%29.83 "Hg10 mi
9:30 AM91 °FSunny.12 mph18%29.83 "HgN/A
9:00 AM90 °FSunny.8 mph21%29.83 "Hg10 mi
8:30 AM88 °FSunny.7 mph25%29.83 "HgN/A
8:00 AM84 °FSunny.6 mph31%29.83 "Hg10 mi
7:30 AM81 °FSunny.5 mph54%29.83 "HgN/A
7:00 AM73 °FSunny.3 mph83%29.83 "Hg10 mi
6:30 AM72 °FSunny.No wind83%29.80 "HgN/A
6:00 AM73 °FSunny.No wind78%29.80 "Hg10 mi
5:30 AM75 °FSunny.No wind74%29.77 "HgN/A
5:00 AM75 °FClear.6 mph78%29.77 "HgN/A
4:30 AM75 °FClear.6 mph78%29.77 "HgN/A
4:00 AM75 °FClear.6 mph78%29.77 "HgN/A
3:30 AM75 °FClear.5 mph78%29.77 "HgN/A
3:00 AM79 °FClear.7 mph65%29.77 "HgN/A
2:30 AM79 °FClear.8 mph65%29.77 "HgN/A
2:00 AM79 °FClear.7 mph65%29.77 "HgN/A
1:30 AM79 °FClear.8 mph65%29.77 "HgN/A
1:00 AM79 °FClear.7 mph65%29.77 "HgN/A
12:30 AM79 °FClear.7 mph70%29.77 "HgN/A
12:00 AM79 °FClear.7 mph65%29.80 "HgN/A
11:30 PM
Jan 25
79 °FClear.5 mph70%29.80 "HgN/A
11:00 PM79 °FClear.7 mph70%29.80 "HgN/A
10:30 PM81 °FClear.10 mph62%29.80 "HgN/A
10:00 PM81 °FClear.10 mph66%29.80 "HgN/A
9:30 PM81 °FClear.15 mph62%29.80 "HgN/A
9:00 PM82 °FClear.12 mph58%29.77 "HgN/A
8:30 PM82 °FPassing clouds.12 mph58%29.77 "HgN/A
8:00 PM86 °FPassing clouds.9 mph49%29.74 "HgN/A
7:30 PM84 °FClear.9 mph58%29.71 "HgN/A
7:00 PM82 °FClear.17 mph58%29.71 "HgN/A
6:00 PM95 °FSunny.14 mph34%29.65 "HgN/A
5:30 PM100 °FScattered clouds.13 mph25%29.65 "HgN/A
5:00 PM100 °FScattered clouds.13 mph25%29.65 "HgN/A
Weather by CustomWeather, © 2014

See weather overviewHow to use our weather pages